{"data":{"norad_id":8820,"intl_designator":"1976-039A","name":"LAGEOS 1","alt_names":[],"object_type":"PAYLOAD","status":"ACTIVE","operator":null,"country":"US","launch_date":"1976-05-04","launch_site_code":"AFWTR","launch_vehicle":null,"mission":null,"orbit_class":"UNKNOWN","rcs_meters":0.3981,"size_class":null,"mass_kg":null,"dimensions":null,"purposes":["science"],"wikipedia_slug":null,"has_3d_model":false,"image_url":null,"decayed_at":null,"tle_current":{"epoch":"2026-09-18T22:48:25.998624Z","epoch_age_seconds":145375,"freshness":"FRESH","line1":"1 08820U 76039A   26261.95030091  .00000003  00000+0  00000+0 0  9998","line2":"2 08820 109.8183 211.4244 0044610 282.1745 255.4351  6.38664882919120","mean_motion":6.38664882,"eccentricity":0.004461,"inclination_deg":109.8183,"raan_deg":211.4244,"arg_perigee_deg":282.1745,"mean_anomaly_deg":255.4351,"bstar":0,"rev_number":91912,"period_min":225.47035864734,"perigee_km":5838.3056846654,"apogee_km":5947.7891922252,"semimajor_km":12271.184438445,"source":"CELESTRAK","updated_at":"2026-09-20T09:00:47.280157Z"}}}